Regional Weather Roundup
Issued by NWS

Home | Current Version | Previous Version | Text Only | Print | Product List | Glossary Off
Versions: 1 2 3 4 5 6 7 8 9 10 11 12 13 14 15 16 17 18 19 20 21 22 23 24 25 26 27 28 29 30 31 32 33 34 35 36 37 38 39 40 41 42 43 44 45 46 47 48 49 50

000
ASUS43 KMKX 200400
RWRWI

WISCONSIN REGIONAL WEATHER ROUNDUP
NATIONAL WEATHER SERVICE MILWAUKEE/SULLIVAN WI
1100 PM CDT FRI SEP 19 2014

NOTE: "FAIR" INDICATES FEW OR NO CLOUDS BELOW 12,000 FEET WITH NO
SIGNIFICANT WEATHER AND/OR OBSTRUCTIONS TO VISIBILITY.

WIZ001-002-006>008-014>016-023>028-200500-
NORTHWEST WISCONSIN

CITY           SKY/WX    TMP DP  RH WIND       PRES   REMARKS
SUPERIOR ARPT  CLOUDY    59  59 100 SW3       29.63R FOG
ASHLAND        CLOUDY    66  60  81 SW7       29.65S
HAYWARD        CLOUDY    67  62  84 S10       29.68S
SIREN          CLEAR     63  61  94 S3        29.66F
RICE LAKE      MOCLDY    68  63  83 S9        29.71S
LADYSMITH      MOCLDY    65  60  82 S10       29.73S
EAU CLAIRE     NOT AVBL
MENOMONIE      MOCLDY    69  64  84 S13       29.71R
NEW RICHMOND   CLOUDY    70  67  91 S12       29.68R
OSCEOLA        PTCLDY    63  63 100 CALM      29.69S
$$

WIZ003>005-009-010-017-018-200500-
NORTH CENTRAL WISCONSIN

CITY           SKY/WX    TMP DP  RH WIND       PRES   REMARKS
WOODRUFF       CLOUDY    65  56  72 SW10G20   29.72S
RHINELANDER    CLOUDY    64  54  69 SW16G26   29.75R
EAGLE RIVER    CLOUDY    65  53  65 SW12G18   29.72S
LAND O LAKES   CLOUDY    65  55  68 SW10G17   29.73S
PHILLIPS       MOCLDY    64  58  80 SW14      29.71S
TOMAHAWK       CLOUDY    64  55  72 S6        29.75R
MEDFORD        CLOUDY    63  56  78 S10G21    29.76S
MERRILL        LGT RAIN  64  56  74 SW9       29.76S
$$

WIZ029-030-035-036-043>047-200500-
CENTRAL WISCONSIN

CITY           SKY/WX    TMP DP  RH WIND       PRES   REMARKS
WAUSAU         CLOUDY    65  54  67 S18G25    29.76S
MOSINEE        CLOUDY    63  54  72 S16       29.80S
MARSHFIELD     CLOUDY    65  55  70 SW14      29.78F
STEVENS POINT  CLOUDY    63  52  66 S12       29.80F
WAUPACA        CLOUDY    66  53  64 S7        29.82S
WAUTOMA        NOT AVBL
WISC RAPIDS    CLOUDY    66  54  65 S13       29.81F
CAMP DOUGLAS   NOT AVBL
$$

WIZ011>013-019>022-031-037>040-048>050-200500-
NORTHEAST WISCONSIN

CITY           SKY/WX    TMP DP  RH WIND       PRES   REMARKS
ANTIGO         CLOUDY    63  53  70 SW13G21   29.79S
STURGEON BAY   CLOUDY    63  52  67 S16       29.81S
GREEN BAY      MOCLDY    66  52  60 S10       29.81F
MANITOWOC      NOT AVBL
APPLETON       CLOUDY    64  52  63 SW13      29.84S
CLINTONVILLE   MOCLDY    63  52  67 S9        29.79F
OSHKOSH        PTCLDY    65  52  62 SW7       29.85R
$$

WIZ032>034-041-042-053>061-200500-
SOUTHWEST WISCONSIN

CITY           SKY/WX    TMP DP  RH WIND       PRES   REMARKS
LA CROSSE      PTCLDY    70  59  68 S16G28    29.76F
SPARTA         PTCLDY    67  55  65 S6        29.81F
VIROQUA        FAIR      65  57  74 SW12G17   29.83S
BOSCOBEL       CLEAR     69  56  62 SW10      29.84S
PRAIRIE DU CHI CLEAR     68  55  63 S7        29.84S
PLATTEVILLE    FAIR      65  55  68 S17       29.89S
$$

WIZ056-057-062-063-064-067-068-200500-
SOUTH CENTRAL WISCONSIN

CITY           SKY/WX    TMP DP  RH WIND       PRES   REMARKS
BARABOO/DELLS  CLEAR     66  52  60 SW16G23   29.82S
LONE ROCK      NOT AVBL
WATERTOWN      CLEAR     63  51  65 S8        29.86F
MADISON        PTCLDY    67  53  61 S13G22    29.86S
MIDDLETON      FAIR      68  52  56 SW14G21   29.86S
MONROE         CLEAR     63  54  72 S18G25    29.89S
JANESVILLE     CLEAR     64  50  59 S9        29.90S
$$

WIZ051-052-058>065-066-070>072-200500-
SOUTHEAST WISCONSIN

CITY           SKY/WX    TMP DP  RH WIND       PRES   REMARKS
MILWAUKEE      PTCLDY    64  47  53 S12       29.89F
WAUKESHA       CLEAR     61  45  55 S8G17     29.90F
MILWAUKEE/TIMM CLEAR     63  45  51 S14G20    29.88F
RACINE         CLEAR     65  47  52 S9        29.92F
BURLINGTON     CLEAR     60  47  61 S9        29.91S
KENOSHA        CLEAR     64  48  56 S13G20    29.92F
FOND DU LAC    CLEAR     65  50  58 SW13      29.84S
SHEBOYGAN      PTCLDY    60  48  64 S10       29.85F
WEST BEND      CLEAR     63  45  51 S10       29.86F
JUNEAU         CLEAR     64  51  62 S16       29.87S
$$

LSZ147-162-200500-
LAKE SUPERIOR

STATION/POSITION TIME  TEMP    WIND        PRES    WAVE
                       AIR SEA DIR/SP/G            HT/PER
                 (UTC) (F)     (DEG/KT/KT) (MB)    (FT/S)
W MID LAKE BUOY  0250   54 48  240/  8/ 10 1003.3F   1/ 4
DEVILS ISLAND    0300   58     220/  9/ 10 1003.4F
PORT WING        0300   60     150/  2/  3 1003.7F
SAXON HARBOR     0300   69     210/  6/  8 1004.1
$$

LMZ867-665-643>646-200500-
LAKE MICHIGAN

STATION/POSITION TIME  TEMP    WIND        PRES    WAVE
                       AIR SEA DIR/SP/G            HT/PER
                 (UTC) (F)     (DEG/KT/KT) (MB)    (FT/S)
N MID LAKE BUOY  0250   62 58  210/ 27/ 33 1008.4F   9/ 8
NORTHPORT PIER   0320   63     170/ 10/ 25 1008.1F
KEWAUNEE LAKESHO 0300   63     190/ 13/ 17 1009.7F
SHEBOYGAN LAKESH 0300   63 55  190/ 25/ 27 1011.0F
PORT WASHINGTON  0240   60     190/  5/ 10 1012.5F
ATWATER BUOY     0300   64     180/ 16/ 19 1013.6R
MILWAUKEE LAKESH 0300   65     190/ 13/ 15   N/A
S MID LAKE BUOY  0250   67 63  180/ 21/ 23 1013.6F   3/ 4
KENOSHA   LAKESH 0300   65     180/  9/ 15 1013.2S
$$

TC  - TEMPERATURE IN CELSIUS
VSB - VISIBILITY IN STATUTE MILES
WCI - WIND CHILL INDEX
HX  - HEAT INDEX




USA.gov is the U.S. government's official web portal to all federal, state and local government web resources and services.